TNCMTISX

Guest
Details From TNCM - St Maarten - Princess Juliana Intl
To TISX - St Croix - Henry E Rohlsen
Flight Number -
Tags generated
Created
Modified
Stats Distance 99 nm / 183 km
Max Altitude 10,600 ft / 3,231 m
Waypoints 4
Social Downloads 0
Likes 0
Share VATSIM

Download

Looking for another format? Having issues loading an existing format? Contact us
Advertisement - Login to hide

Notes

Basic altitude profile: - Ascent Rate: 2500ft/min - Ascent Speed: 250kts - Cruise Altitude: 20000ft - Cruise Speed: 300kts - Descent Rate: 1500ft/min - Descent Speed: 250kts Options: - Use NATs: yes - Use PACOTS: yes - Use low airways: yes - Use high airways: yes

Route

TNCM GOUDA R760 COY TISX

ID Type Via Altitude Latitude Longitude Leg Dist Tot Dist Heading (true) Name
O TNCM APT - 0 ft / 0 m 18.04089˚ -63.10897˚ - 0 nm - St Maarten - Princess Juliana Intl
GOUDA FIX - 10,600 ft / 3,231 m 17.93402˚ -63.66667˚ 32 nm 32 nm 259° / 259° -
COY VOR R760 (AWY-LO) 5,000 ft / 1,524 m 17.73444˚ -64.70072˚ 60 nm 92 nm 259° / 258° ST CROIX VOR-DME
O TISX APT - 0 ft / 0 m 17.70151˚ -64.80197˚ 6 nm 98 nm 251° / 251° St Croix - Henry E Rohlsen

Altitude Profile

Advertisement - Login to hide

TNCM

Details ICAO TNCM (SXM)
Name St Maarten - Princess Juliana Intl
Region Caribbean Netherlands, Aruba, Curaçao, Sint Maarten
Timezone Unknown (UTC+0.0)
Stats Elevation 12 ft / 4 m (AMSL)
Location 18.040889° -63.108974°
Runways 1
Magnetic Variation 14.325° W

METAR

TNCM 181800Z 05013KT 020V080 9999 -SHRA BKN018 28/23 Q1016 A3002 NOSIG

Decode

TAF

TAF TNCM 181720Z 1818/1918 08015KT P6SM VCSH SCT022 FM182300 07010KT P6SM FEW018

Decode

Departure Runways

ID Width Length Bearing (true) Bearing (mag) Surface Threshold Offset Overrun Length
10 148 ft / 45 m 7,464 ft / 2,275 m 81.43° 95.76° Asphalt 0 ft / 0 m 151 ft / 46 m
28 148 ft / 45 m 7,464 ft / 2,275 m 261.44° 275.77° Asphalt 397 ft / 121 m 0 ft / 0 m

TISX

Details ICAO TISX (STX)
Name St Croix - Henry E Rohlsen
Region USA (U.S. Virgin Islands)
Timezone America/St_Thomas (UTC-4.0)
Stats Elevation 65 ft / 20 m (AMSL)
Location 17.701505° -64.801975°
Runways 1
Magnetic Variation 13.677° W

METAR

TISX 181753Z 05012KT 10SM FEW002 SCT032 29/23 A3002

Decode

TAF

TAF TISX 181720Z 1818/1918 07012G19KT P6SM VCSH SCT030 FM182300 04010KT P6SM SCT030 FM191300 07015KT P6SM FEW025

Decode

Destination Runways

ID Width Length Bearing (true) Bearing (mag) Surface Threshold Offset Overrun Length
10 151 ft / 46 m 9,969 ft / 3,039 m 83.93° 97.61° Asphalt 0 ft / 0 m 200 ft / 61 m
28 151 ft / 46 m 9,969 ft / 3,039 m 263.93° 277.61° Asphalt 984 ft / 300 m 200 ft / 61 m

Approach Navaids

Runway Type Ident Frequency Range Bearing (true) Bearing (mag) Slope Elevation
10 Localiser ISTX 109.50 MHz 18 nm / 33 km 83.89° 97.57° - 23 ft / 7 m (AMSL)
10 Glidescope ISTX 109.50 MHz 10 nm / 19 km 83.89° 97.57° 3.00° 54 ft / 16 m (AMSL)

Popular Alternatives